Medan, Indonesia

2:52 PM WIB on July 25, 2017 (GMT +0700)
Polonia

Weather History for WIMM - March, 2014

Change the Weather History Date:

Tuesday, March 11, 2014

  Actual Average Record
Temperature  
Mean Temperature 83 °F -  
Max Temperature 93 °F - - ()
Min Temperature 73 °F - - ()
Cooling Degree Days 18    
Growing Degree Days 33 (Base 50)    
Moisture  
Dew Point 74 °F    
Average Humidity 79    
Maximum Humidity 100    
Minimum Humidity 52    
Precipitation  
Precipitation 0.00 in - - ()
Sea Level Pressure  
Sea Level Pressure 29.86 in    
Wind  
Wind Speed 4 mph ()    
Max Wind Speed 17 mph    
Max Gust Speed -    
Visibility 3.5 miles    
Events      
T = Trace of Precipitation, MM = Missing Value Source: Averaged Metar Reports

Daily Weather History Graph

Daily Weather History Graph

Search for Another Location

Airport or City:

Trip Planner

Search our weather history database for the weather conditions in past years. The results will help you decide how hot, cold, wet, or windy it might be!

Date:

Astronomy

Mar. 11, 2014 Rise Set
Actual Time 6:33 AM WIB 6:37 PM WIB
Civil Twilight 6:12 AM WIB 6:58 PM WIB
Nautical Twilight 5:48 AM WIB 7:22 PM WIB
Astronomical Twilight 5:24 AM WIB 7:46 PM WIB
Moon 2:32 PM WIB (3/11) 2:17 AM WIB (3/11)
Length of Visible Light 12h 46m
Length of Day
12h 04m
Waxing Gibbous, 74% of the Moon is Illuminated
Mar 11
Waxing Gibbous
Mar 17
Full
Mar 24
Last Quarter
Mar 31
New
Apr 7
First Quarter

Hourly Weather History & Observations

Time (WIB) Temp. Heat Index Dew Point Humidity Pressure Visibility Wind Dir Wind Speed Gust Speed Precip Events Conditions
12:00 AM 77.0 °F - 73.4 °F 89% 29.89 in 2.5 mi WSW 3.5 mph - N/A   Haze
12:30 AM 77.0 °F - 73.4 °F 89% 29.89 in 2.5 mi West 4.6 mph - N/A   Haze
1:00 AM 76 °F - 74 °F 91% 29.88 in 2 mi Calm Calm - -   Haze
1:00 AM 77.0 °F - 73.4 °F 89% 29.86 in 2.5 mi WSW 3.5 mph - N/A   Haze
1:30 AM 75.2 °F - 73.4 °F 94% 29.86 in 2.5 mi West 4.6 mph - N/A   Haze
2:00 AM 75.2 °F - 73.4 °F 94% 29.86 in 2.5 mi West 3.5 mph - N/A   Haze
2:30 AM 75.2 °F - 73.4 °F 94% 29.83 in 2.5 mi West 3.5 mph - N/A   Haze
3:00 AM 75.2 °F - 73.4 °F 94% 29.83 in 2.5 mi SSW 3.5 mph - N/A   Haze
3:30 AM 73.4 °F - 71.6 °F 94% 29.83 in 2.5 mi Calm Calm - N/A   Haze
4:00 AM 73 °F - 72 °F 95% 29.84 in 2 mi Calm Calm - -   Haze
4:00 AM 73.4 °F - 71.6 °F 94% 29.83 in 2.5 mi Calm Calm - N/A   Haze
4:30 AM 73.4 °F - 73.4 °F 100% 29.83 in 2.5 mi SSW 2.3 mph - N/A   Haze
5:00 AM 75.2 °F - 73.4 °F 94% 29.83 in 2.5 mi Calm Calm - N/A   Haze
5:30 AM 75.2 °F - 73.4 °F 94% 29.86 in 2.5 mi ESE 2.3 mph - N/A   Haze
6:00 AM 73.4 °F - 73.4 °F 100% 29.86 in 2.2 mi Calm Calm - N/A   Haze
6:30 AM 73.4 °F - 73.4 °F 100% 29.86 in 0.7 mi SSW 3.5 mph - N/A   Scattered Clouds
7:00 AM 74 °F - 73 °F 94% 29.88 in 1 mi Calm Calm - -   Mist
7:00 AM 73.4 °F - 71.6 °F 94% 29.86 in 0.6 mi SW 3.5 mph - N/A   Scattered Clouds
7:30 AM 75.2 °F - 73.4 °F 94% 29.89 in 0.7 mi SW 3.5 mph - N/A   Scattered Clouds
8:00 AM 77.0 °F - 77.0 °F 100% 29.89 in 1.2 mi SW 4.6 mph - N/A   Scattered Clouds
8:30 AM 80.6 °F 87.1 °F 77.0 °F 89% 29.92 in 1.2 mi SW 5.8 mph - N/A   Smoke
9:00 AM 84.2 °F 92.3 °F 75.2 °F 74% 29.92 in 1.9 mi WNW 6.9 mph - N/A   Smoke
9:30 AM 86.0 °F 93.4 °F 73.4 °F 66% 29.92 in 2.5 mi West 5.8 mph - N/A   Smoke
10:00 AM 90 °F - 75 °F 52% 29.94 in 4 mi West 9.2 mph - -   Partly Cloudy
10:00 AM 89.6 °F 99.8 °F 75.2 °F 62% 29.92 in 4.3 mi West 9.2 mph - N/A   Partly Cloudy
10:30 AM 89.6 °F 99.8 °F 75.2 °F 62% 29.92 in 5.0 mi NW 8.1 mph - N/A   Scattered Clouds
11:00 AM 93.2 °F 102.4 °F 73.4 °F 52% 29.92 in 5.0 mi NW 10.4 mph - N/A   Mostly Cloudy
11:30 AM 93.2 °F 102.4 °F 73.4 °F 52% 29.92 in 5.0 mi North 8.1 mph - N/A   Mostly Cloudy
12:00 PM 91.4 °F 102.5 °F 75.2 °F 59% 29.89 in 5.0 mi NW 10.4 mph - N/A   Mostly Cloudy
12:30 PM 89.6 °F 99.8 °F 75.2 °F 62% 29.89 in 6.2 mi NW 12.7 mph - N/A   Scattered Clouds
1:00 PM 90 °F - 75 °F 54% 29.87 in 6 mi North 12.7 mph - -   Partly Cloudy
1:00 PM 91.4 °F 102.5 °F 75.2 °F 59% 29.86 in 6.2 mi North 12.7 mph - N/A   Scattered Clouds
1:30 PM 91.4 °F 102.5 °F 75.2 °F 59% 29.86 in 6.2 mi NNW 12.7 mph - N/A   Scattered Clouds
2:00 PM 89.6 °F 99.8 °F 75.2 °F 62% 29.83 in 6.2 mi North 15.0 mph - N/A   Partly Cloudy
3:00 PM 89.6 °F 99.8 °F 75.2 °F 62% 29.80 in 6.2 mi North 13.8 mph - N/A   Partly Cloudy
3:30 PM 89.6 °F 99.8 °F 75.2 °F 62% 29.80 in 6.2 mi NNW 17.3 mph - N/A   Scattered Clouds
4:00 PM 89 °F - 76 °F 57% 29.80 in 6 mi North 13.8 mph - -   Partly Cloudy
4:00 PM 89.6 °F 99.8 °F 75.2 °F 62% 29.77 in 6.2 mi North 13.8 mph - N/A   Scattered Clouds
4:30 PM 89.6 °F 99.8 °F 75.2 °F 62% 29.77 in 6.2 mi North 10.4 mph - N/A   Scattered Clouds
5:00 PM 89.6 °F 99.8 °F 75.2 °F 62% 29.80 in 5.6 mi North 5.8 mph - N/A   Scattered Clouds
5:30 PM 87.8 °F 97.6 °F 75.2 °F 66% 29.80 in 5.6 mi NNE 5.8 mph - N/A   Partly Cloudy
6:00 PM 86.0 °F 95.1 °F 75.2 °F 70% 29.80 in 5.6 mi NNE 6.9 mph - N/A   Scattered Clouds
6:30 PM 84.2 °F 90.9 °F 73.4 °F 70% 29.83 in 5.6 mi North 3.5 mph - N/A   Scattered Clouds
7:00 PM 83 °F - 74 °F 66% 29.83 in 5 mi North 4.6 mph - -   Partly Cloudy
7:00 PM 82.4 °F 88.2 °F 73.4 °F 74% 29.83 in 5.0 mi North 4.6 mph - N/A   Scattered Clouds
7:30 PM 82.4 °F 88.2 °F 73.4 °F 74% 29.83 in 3.7 mi Calm Calm - N/A   Scattered Clouds
8:00 PM 80.6 °F 86.2 °F 75.2 °F 84% 29.83 in 3.7 mi Calm Calm - N/A   Scattered Clouds
9:00 PM 78.8 °F - 75.2 °F 89% 29.86 in 3.1 mi Calm Calm - N/A   Haze
9:30 PM 77.0 °F - 75.2 °F 94% 29.86 in 2.5 mi SW 3.5 mph - N/A   Haze
10:00 PM 78 °F - 74 °F 85% 29.88 in 2 mi Calm Calm - -   Haze
10:00 PM 77.0 °F - 75.2 °F 94% 29.86 in 2.5 mi Calm Calm - N/A   Haze
10:30 PM 77.0 °F - 73.4 °F 89% 29.89 in 1.9 mi SSW 5.8 mph - N/A   Haze
11:00 PM 77.0 °F - 73.4 °F 89% 29.89 in 1.9 mi Calm Calm - N/A   Haze
11:30 PM 77.0 °F - 75.2 °F 94% 29.89 in 1.9 mi Calm Calm - N/A   Haze